Campo, CA

11:00 PM PDT on August 20, 2017 (GMT -0700)
Campo

Weather History for KCZZ - February, 2013

Change the Weather History Date:

Friday, February 1, 2013

  Actual Average Record
Temperature  
Mean Temperature 52 °F 49 °F  
Max Temperature 71 °F 63 °F 79 °F (1995)
Min Temperature 32 °F 35 °F 18 °F (1959)
Degree Days  
Heating Degree Days 13 16  
Month to date heating degree days 13 16  
Since 1 July heating degree days 1594 1632  
Cooling Degree Days 0 0  
Month to date cooling degree days 0 0  
Year to date cooling degree days 0 0  
Growing Degree Days 2 (Base 50)    
Moisture  
Dew Point 28 °F    
Average Humidity 46    
Maximum Humidity 75    
Minimum Humidity 17    
Precipitation  
Precipitation 0.00 in 0.10 in 0.90 in (1996)
Month to date precipitation 0.00 0.10  
Year to date precipitation 2.03 3.08  
Since 1 July precipitation 6.50  
Snow  
Snow 0.00 in - - ()
Month to date snowfall 0.0  
Year to date snowfall 0.0  
Snow Depth 0.00 in    
Sea Level Pressure  
Sea Level Pressure 30.11 in    
Wind  
Wind Speed 6 mph (NE)    
Max Wind Speed 16 mph    
Max Gust Speed 21 mph    
T = Trace of Precipitation, MM = Missing Value Source: NWS Daily Summary

Daily Weather History Graph

Daily Weather History Graph

Search for Another Location

Airport or City:

Trip Planner

Search our weather history database for the weather conditions in past years. The results will help you decide how hot, cold, wet, or windy it might be!

Date:

Astronomy

Feb. 01, 2013 Rise Set
Actual Time 6:40 AM PST 5:19 PM PST
Civil Twilight 6:14 AM PST 5:44 PM PST
Nautical Twilight 5:45 AM PST 6:14 PM PST
Astronomical Twilight 5:16 AM PST 6:43 PM PST
Moon 11:06 PM PST (2/1) 9:38 AM PST (2/1)
Length of Visible Light 11h 30m
Length of Day
10h 38m
Waning Gibbous, 69% of the Moon is Illuminated
Feb 1
Waning Gibbous
Feb 3
Last Quarter
Feb 9
New
Feb 17
First Quarter
Feb 25
Full

Hourly Weather History & Observations

Time (PST) Temp. Windchill Dew Point Humidity Pressure Visibility Wind Dir Wind Speed Gust Speed Precip Events Conditions
12:52 AM 37.0 °F 34.5 °F 28.9 °F 73% 30.10 in - North 3.5 mph - N/A   Unknown
1:52 AM 36.0 °F 32.1 °F 28.0 °F 73% 30.10 in - NNE 4.6 mph - N/A   Unknown
2:52 AM 37.0 °F - 28.0 °F 70% 30.10 in - Calm Calm - N/A   Unknown
3:52 AM 34.0 °F 31.0 °F 27.0 °F 75% 30.11 in - NE 3.5 mph - N/A   Unknown
4:52 AM 35.1 °F 32.2 °F 27.0 °F 72% 30.11 in - NE 3.5 mph - N/A   Unknown
5:52 AM 35.1 °F - 27.0 °F 72% 30.12 in - Calm Calm - N/A   Unknown
6:52 AM 34.0 °F - 26.1 °F 73% 30.13 in - Calm Calm - N/A   Unknown
7:52 AM 41.0 °F - 32.0 °F 70% 30.14 in - Calm Calm - N/A   Unknown
8:52 AM 54.0 °F - 37.9 °F 55% 30.13 in - Calm Calm - N/A   Unknown
9:52 AM 66.0 °F - 28.9 °F 25% 30.12 in - East 11.5 mph - N/A   Unknown
10:52 AM 66.9 °F - 27.0 °F 22% 30.12 in - East 12.7 mph - N/A   Unknown
11:52 AM 70.0 °F - 26.1 °F 19% 30.10 in - East 12.7 mph - N/A   Unknown
12:52 PM 70.0 °F - 26.1 °F 19% 30.07 in - East 15.0 mph - N/A   Unknown
1:52 PM 70.0 °F - 23.0 °F 17% 30.07 in - ENE 11.5 mph - N/A   Unknown
2:52 PM 70.0 °F - 25.0 °F 18% 30.06 in - East 11.5 mph - N/A   Unknown
3:52 PM 68.0 °F - 27.0 °F 21% 30.06 in - ENE 13.8 mph - N/A   Unknown
4:52 PM 63.0 °F - 28.9 °F 28% 30.09 in - East 12.7 mph - N/A   Unknown
5:52 PM 57.9 °F - 28.9 °F 33% 30.11 in - ENE 12.7 mph - N/A   Unknown
6:52 PM 54.0 °F - 30.0 °F 40% 30.14 in - NNE 6.9 mph - N/A   Unknown
7:52 PM 51.1 °F - 30.0 °F 44% 30.15 in - NNE 5.8 mph - N/A   Unknown
8:52 PM 52.0 °F - 28.9 °F 41% 30.14 in - NNE 8.1 mph - N/A   Unknown
9:52 PM 46.9 °F - 30.0 °F 52% 30.14 in - NNE 5.8 mph - N/A   Unknown
10:52 PM 52.0 °F - 28.9 °F 41% 30.13 in - North 4.6 mph - N/A   Unknown
11:52 PM 48.9 °F - 30.9 °F 50% 30.13 in - North 3.5 mph - N/A   Unknown